Location: Litvinovka
(48.6667°N, 34.3500°E)
Time: 00:58:48
(UTC+00:00)

ARIANE 5 R/B - Pass Details

Date: 18 September 2020
Orbit: 620 x 657 km, 98.2° (Epoch: 09 October)

Event Time Altitude Azimuth Distance (km) Brightness Sun altitude
Exits shadow 18:00:10 40° 57° (ENE) 923 3.2 -21.6°
Drops below altitude 10° 18:03:57 10° 359° (N) 2,003 5.5 -22.1°
Sets 18:06:13 0° 352° (N) 2,912 6.6 -22.5°
